CAPE
0 63 307 502 616 703 901 895 882 830 725 586 574 611 716 692 613 431 361 187 393 769 1372 1293 1212 1122 777 532 330 193 74 10 0 0 0 0 0 0 0 0 0 0 0
212 266 219 358 482 714 947 910 738 718 568 495 622 939 1013 866 731 644 442 79 253 388 908 1346 1391 1411 1236 1075 605 422 280 116 31 0 0 0 0 0 0 0 0 0 2
450 446 447 496 348 431 451 364 244 163 230 417 664 807 909 843 712 598 286 113 205 361 168 350 713 831 579 136 110 346 423 284 134 30 4 1 0 0 0 2 11 20 22
433 453 516 560 550 509 753 638 650 574 697 649 673 647 528 424 287 129 37 11 0 32 326 551 380 154 50 11 21 85 580 347 220 114 6 4 5 0 0 0 4 20 30
544 528 626 754 806 670 581 679 520 578 447 316 416 409 303 293 196 19 0 9 0 0 19 64 96 70 156 142 48 265 162 510 312 129 93 42 5 4 3 2 2 19 38
930 720 476 467 368 233 9 30 145 28 7 0 0 38 7 0 0 0 0 0 0 0 0 0 0 4 91 144 131 100 26 588 452 214 191 104 76 7 2 1 12 24 42
627 499 586 320 119 187 109 30 0 0 0 0 0 0 0 0 0 0 0 0 0 0 0 0 1 6 64 29 93 10 0 437 555 466 314 173 130 99 52 31 54 28 33
158 132 40 0 0 0 1 0 0 0 0 0 0 0 0 0 0 0 0 0 0 0 0 0 0 12 26 92 111 125 274 285 778 754 488 294 191 141 137 147 49 79 21
0 0 0 0 0 0 0 0 0 0 0 0 0 3 4 1 1 0 0 0 0 0 0 0 0 0 0 7 72 179 548 336 501 692 713 443 340 293 279 244 114 95 14
0 0 0 0 0 0 0 0 0 0 0 0 0 1 3 11 8 9 0 0 0 0 0 0 8 0 1 3 42 13 145 266 421 318 792 790 552 421 207 192 163 61 5
0 0 0 0 0 0 0 0 0 0 0 0 0 0 0 3 14 6 2 0 0 0 2 16 16 0 1 3 13 21 48 53 265 261 354 766 434 253 234 327 103 1 0
0 0 0 0 0 0 0 0 0 0 0 0 0 0 0 0 3 10 3 5 0 0 0 7 13 13 0 0 29 13 29 77 159 299 424 416 359 390 393 183 2 2 0
0 0 0 0 0 0 0 0 0 0 0 0 0 0 0 0 0 1 6 10 3 0 0 3 26 20 6 0 0 18 45 151 210 245 326 268 305 356 177 14 1 2 0
0 0 0 0 0 0 0 0 0 0 0 0 0 0 0 0 0 0 0 0 0 0 0 1 0 0 0 0 17 2 38 93 173 211 192 196 239 152 5 2 1 0 0
0 0 0 0 0 0 0 0 0 0 0 0 0 0 0 0 0 0 0 0 0 0 0 8 0 0 13 1 13 72 54 71 59 88 132 118 76 3 0 0 0 0 0
0 0 0 0 0 0 0 0 0 0 0 0 0 0 0 0 0 0 0 0 0 0 0 0 0 0 0 37 17 22 12 21 16 7 99 60 0 0 0 0 0 0 0
0 0 0 0 0 0 0 0 0 0 0 0 0 0 0 0 0 0 0 0 0 0 0 0 0 0 0 13 43 13 18 25 7 3 16 1 0 0 0 0 0 0 0
0 0 0 0 0 0 0 0 0 0 0 0 0 0 0 0 0 0 0 0 0 0 0 0 0 0 0 2 41 26 38 31 26 27 0 0 0 0 0 0 0 0 0
0 0 0 0 0 0 0 0 0 0 0 0 0 0 0 0 0 0 0 0 0 0 0 0 0 0 0 0 0 13 9 2 13 10 0 0 0 0 0 0 0 0 0
0 0 0 0 0 0 0 0 0 0 0 0 0 0 0 0 0 0 0 0 0 0 0 0 0 0 0 0 0 2 21 23 10 4 0 0 0 0 0 0 0 0 0
0 0 0 0 0 0 0 0 0 0 0 0 0 0 0 0 0 0 0 0 0 0 0 0 0 0 0 0 0 0 1 7 8 0 1 0 0 1 0 0 0 0 0
0 0 0 0 0 0 0 0 0 0 0 0 0 0 0 0 0 0 0 0 0 0 0 0 0 0 0 0 0 0 1 2 9 0 0 0 0 0 1 0 0 0 0
0 0 0 0 0 0 0 0 0 0 0 0 0 0 0 0 0 0 0 0 0 2 6 9 9 1 0 0 0 0 0 0 1 10 1 0 1 0 0 0 0 0 0
0 0 0 0 0 0 0 0 0 0 0 0 1 0 0 0 0 0 0 0 0 0 0 0 0 0 0 0 0 0 0 0 0 0 0 6 0 0 0 0 0 0 0
0 0 0 0 0 0 0 0 0 0 0 0 0 0 0 0 0 0 0 0 0 0 0 0 0 0 0 0 0 0 0 0 0 0 0 0 1 0 0 0 0 0 0
0 0 0 0 0 0 0 0 0 0 2 1 0 0 0 0 0 0 0 0 0 0 0 0 0 0 0 0 0 0 0 0 0 0 2 0 0 0 0 0 0 0 0
CIN
-0 -393 -249 -201 -169 -163 -125 -102 -99 -106 -104 -121 -137 -133 -115 -108 -91 -127 -151 -152 -116 -89 -67 -32 -18 -8 -20 -23 -26 -31 -53 -113 -0 -0 -0 -0 -0 -0 -0 -0 -0 -0 -0
-344 -295 -288 -229 -187 -155 -110 -112 -105 -95 -127 -143 -111 -100 -95 -103 -108 -130 -152 -194 -142 -101 -58 -48 -22 -10 -2 -6 -0 -10 -10 -34 -82 -0 -0 -0 -0 -0 -0 -0 -0 -0 -24
-253 -266 -248 -208 -224 -227 -224 -248 -239 -244 -211 -158 -107 -95 -91 -96 -118 -131 -156 -161 -167 -129 -137 -124 -73 -50 -62 -138 -144 -14 -2 -3 -38 -66 -0 -0 -0 -0 -0 -0 -12 -15 -16
-284 -251 -218 -196 -196 -218 -160 -185 -149 -137 -99 -107 -115 -129 -158 -167 -190 -234 -239 -247 -0 -227 -119 -91 -81 -86 -125 -164 -116 -116 -0 -11 -19 -47 -25 -0 -0 -0 -0 -0 -4 -8 -2
-246 -241 -219 -187 -126 -158 -170 -130 -151 -117 -143 -176 -146 -160 -202 -195 -195 -138 -0 -240 -0 -0 -177 -133 -130 -140 -114 -119 -136 -73 -10 -0 -2 -33 -38 -54 -18 -0 -0 -0 -0 -6 -4
-211 -212 -253 -234 -245 -271 -267 -234 -218 -318 -79 -0 -0 -52 -75 -0 -0 -0 -0 -0 -0 -0 -0 -0 -0 -64 -91 -42 -51 -58 -98 -0 -1 -14 -5 -41 -26 -9 -0 -0 -7 -7 -7
-264 -246 -179 -241 -309 -288 -292 -312 -0 -0 -0 -0 -0 -0 -0 -0 -0 -0 -0 -0 -0 -0 -0 -0 -15 -57 -49 -15 -45 -99 -0 -0 -1 -1 -1 -37 -25 -11 -13 -3 -2 -3 -5
-354 -341 -334 -0 -0 -0 -268 -0 -0 -0 -0 -0 -0 -0 -0 -0 -0 -0 -0 -0 -0 -0 -0 -0 -0 -37 -66 -46 -37 -28 -21 -25 -0 -0 -0 -18 -22 -18 -8 -0 -3 -1 -1
-0 -0 -0 -0 -0 -0 -0 -0 -0 -0 -0 -0 -0 -3 -1 -2 -4 -0 -0 -0 -0 -0 -0 -0 -0 -35 -0 -132 -118 -141 -66 -23 -8 -3 -1 -18 -10 -2 -2 -0 -2 -1 -2
-0 -0 -0 -0 -0 -0 -0 -0 -0 -0 -0 -0 -0 -6 -19 -2 -0 -0 -0 -0 -0 -0 -0 -18 -133 -35 -187 -233 -133 -117 -104 -64 -5 -12 -4 -3 -3 -16 -7 -4 -1 -16 -4
-0 -0 -0 -0 -0 -0 -0 -0 -0 -0 -0 -0 -0 -0 -0 -11 -2 -1 -0 -0 -0 -0 -66 -100 -109 -7 -198 -250 -199 -109 -133 -148 -38 -11 -13 -3 -8 -17 -9 -0 -19 -6 -0
-0 -0 -0 -0 -0 -0 -0 -0 -0 -0 -0 -0 -0 -0 -0 -0 -8 -6 -10 -14 -0 -0 -0 -135 -106 -124 -0 -63 -183 -195 -122 -117 -79 -19 -12 -13 -19 -11 -0 -13 -0 -0 -0
-0 -0 -0 -0 -0 -0 -0 -0 -0 -0 -0 -0 -0 -0 -0 -0 -0 -15 -15 -17 -11 -0 -0 -85 -171 -149 -113 -0 -0 -144 -101 -73 -62 -47 -30 -31 -21 -17 -37 -26 -0 -0 -0
-0 -0 -0 -0 -0 -0 -0 -0 -0 -0 -0 -0 -0 -0 -0 -0 -0 -0 -0 -0 -0 -0 -0 -11 -2 -0 -0 -179 -175 -102 -91 -69 -59 -58 -47 -26 -35 -64 -26 -1 -0 -0 -0
-0 -0 -0 -0 -0 -0 -0 -0 -0 -0 -0 -0 -0 -0 -0 -0 -0 -0 -0 -0 -0 -0 -0 -5 -0 -0 -85 -7 -144 -143 -88 -84 -41 -88 -59 -46 -90 -138 -0 -0 -0 -0 -0
-0 -0 -0 -0 -0 -0 -0 -0 -0 -0 -0 -0 -0 -0 -0 -0 -0 -0 -0 -0 -0 -0 -0 -0 -0 -0 -0 -90 -106 -98 -120 -127 -37 -19 -56 -113 -0 -0 -0 -0 -0 -0 -0
-0 -0 -0 -0 -0 -0 -0 -0 -0 -0 -0 -0 -0 -0 -0 -0 -0 -0 -0 -0 -0 -0 -0 -0 -0 -0 -0 -14 -74 -82 -128 -134 -109 -99 -114 -70 -0 -0 -0 -0 -0 -0 -0
-0 -0 -0 -0 -0 -0 -0 -0 -0 -0 -0 -0 -0 -0 -0 -0 -0 -0 -0 -0 -0 -0 -0 -0 -0 -0 -0 -6 -48 -53 -66 -106 -90 -90 -114 -0 -0 -0 -0 -0 -0 -0 -0
-0 -0 -0 -0 -0 -0 -0 -0 -0 -0 -0 -0 -0 -0 -0 -0 -0 -0 -0 -0 -0 -0 -0 -0 -0 -0 -0 -0 -17 -38 -60 -78 -93 -86 -0 -0 -0 -0 -0 -0 -0 -0 -0
-0 -0 -0 -0 -0 -0 -0 -0 -0 -0 -0 -0 -0 -0 -0 -0 -0 -0 -0 -0 -0 -0 -0 -0 -0 -0 -0 -0 -0 -0 -14 -25 -64 -79 -0 -0 -0 -0 -0 -0 -0 -0 -0
-0 -0 -0 -0 -0 -0 -0 -0 -0 -0 -0 -0 -0 -0 -0 -0 -0 -0 -0 -0 -0 -0 -0 -0 -0 -0 -0 -0 -0 -0 -0 -27 -53 -0 -0 -0 -0 -0 -0 -0 -0 -0 -0
-0 -0 -0 -0 -0 -0 -0 -0 -0 -0 -0 -0 -0 -0 -0 -0 -0 -0 -0 -0 -0 -0 -0 -0 -0 -0 -0 -0 -0 -0 -0 -0 -0 -0 -0 -0 -0 -0 -0 -0 -0 -0 -0
-0 -0 -0 -0 -0 -0 -0 -0 -0 -0 -0 -0 -0 -0 -0 -0 -0 -0 -0 -0 -0 -26 -19 -12 -8 -5 -0 -0 -0 -0 -0 -0 -16 -0 -0 -0 -0 -0 -0 -0 -0 -0 -0
-0 -0 -0 -0 -0 -0 -0 -0 -0 -0 -0 -0 -2 -1 -0 -0 -0 -0 -0 -0 -0 -0 -0 -0 -0 -0 -0 -0 -0 -0 -0 -0 -0 -0 -0 -1 -0 -0 -0 -0 -0 -0 -0
-0 -0 -0 -0 -0 -0 -0 -0 -0 -0 -0 -2 -0 -2 -3 -0 -0 -0 -0 -0 -0 -0 -0 -0 -0 -0 -0 -0 -0 -0 -0 -0 -0 -0 -0 -0 -0 -0 -0 -0 -0 -0 -0
-0 -0 -0 -0 -0 -0 -0 -0 -0 -1 -4 -4 -0 -0 -6 -7 -0 -0 -0 -0 -0 -0 -0 -0 -0 -0 -0 -0 -0 -0 -0 -0 -0 -0 -1 -0 -0 -0 -0 -0 -0 -0 -0
Wind_Speed
5 4 4 4 3 3 2 2 2 1 1 2 2 3 4 6 9 14 20 24 22 17 10 7 10 11 11 11 9 8 4 1 0 2 3 4 6 7 8 10 12 13 16
5 5 3 3 2 4 2 1 3 3 3 5 4 8 9 14 13 16 17 18 21 22 13 7 11 14 17 19 20 15 11 4 2 4 4 3 4 5 6 9 10 11 14
4 3 4 6 8 11 13 15 20 20 20 22 22 20 18 19 17 16 17 20 20 20 17 15 11 13 22 26 28 36 12 8 6 3 3 3 2 3 6 9 10 11 14
1 2 11 19 19 16 19 19 22 21 21 23 23 23 22 21 21 18 19 19 19 22 20 16 12 21 21 28 29 46 25 14 10 6 4 4 5 5 7 9 10 12 15
8 10 18 22 22 21 22 22 24 22 22 24 24 22 22 22 20 23 26 23 22 22 21 16 17 24 30 27 20 16 39 13 13 9 6 3 7 7 7 9 10 7 11
13 15 17 20 20 21 24 25 24 23 23 27 28 27 25 23 22 24 27 24 23 24 21 18 20 22 29 25 16 17 16 25 13 10 7 5 3 6 6 6 3 5 13
16 17 18 20 20 22 23 26 22 25 27 29 28 30 27 25 25 26 27 26 27 26 22 20 20 13 19 5 16 3 5 19 11 11 12 5 6 1 4 3 3 8 11
17 17 18 19 22 24 25 25 25 26 27 29 31 30 33 32 25 36 31 34 30 29 25 22 16 11 16 15 5 6 19 19 16 15 10 6 4 4 3 1 7 9 12
18 18 18 20 21 24 25 28 28 28 30 27 27 27 31 31 36 29 35 33 33 32 27 21 16 13 15 15 20 10 5 28 17 12 9 6 6 7 4 5 6 8 10
18 19 19 21 22 23 25 27 28 28 27 30 25 26 24 25 31 34 32 35 35 34 28 20 16 14 13 20 21 14 18 24 15 10 7 7 8 6 4 3 6 8 12
17 18 20 20 22 23 25 26 27 27 27 27 27 27 27 27 26 30 34 39 37 35 31 25 19 22 25 26 21 21 20 21 22 10 7 4 4 3 3 5 6 9 12
17 19 20 21 22 24 25 26 26 27 28 28 28 27 28 27 30 29 31 35 36 35 36 29 25 27 24 21 22 26 23 23 22 10 6 5 3 3 5 6 7 9 13
17 19 21 23 24 24 25 26 27 28 28 28 27 27 26 28 29 29 30 33 32 32 30 31 27 25 28 27 23 22 24 24 20 13 6 3 2 4 5 6 7 9 13
16 19 21 23 24 25 26 27 27 28 28 27 28 28 28 29 29 29 30 32 32 29 29 27 28 29 28 25 22 22 25 25 19 13 11 6 1 3 4 6 7 10 13
16 19 21 24 25 26 27 27 28 28 27 27 28 29 29 29 29 29 29 29 29 30 30 26 28 31 30 27 24 20 20 21 23 22 10 7 1 2 4 5 7 10 13
17 19 22 23 25 26 27 28 28 27 26 27 28 30 31 31 31 30 30 29 28 28 26 29 32 32 33 27 26 22 18 21 26 25 8 4 1 2 3 4 7 10 12
17 19 21 23 26 28 28 29 29 27 27 28 29 31 32 32 33 32 30 29 29 28 29 32 32 33 30 30 24 24 20 22 23 22 14 6 3 3 3 5 8 9 12
16 18 21 23 27 29 30 31 28 27 28 30 31 33 35 35 35 32 31 29 28 28 28 34 33 33 32 30 24 24 19 20 21 16 9 9 9 7 7 9 7 8 12
15 18 20 23 26 29 29 28 28 28 29 30 32 34 37 35 33 31 30 30 29 29 30 30 33 32 32 27 26 23 24 22 18 14 12 10 9 11 11 9 11 10 12
15 18 20 24 27 29 29 30 29 30 31 31 33 34 35 33 31 30 30 30 30 30 30 31 31 32 30 29 26 26 25 20 16 14 11 16 14 19 16 15 13 11 10
17 19 23 26 28 29 32 30 30 30 31 32 32 33 32 31 31 30 30 29 29 29 30 30 30 30 30 30 28 28 27 25 15 15 14 14 18 23 27 24 21 12 9
20 23 24 27 30 33 32 30 30 31 31 32 32 31 31 30 31 31 30 29 27 28 30 29 29 30 30 29 28 27 27 23 21 14 13 19 14 20 29 28 23 14 8
24 25 26 30 31 33 31 33 32 32 32 31 30 30 29 29 29 31 31 30 29 26 26 27 27 26 28 29 30 29 28 29 26 20 14 12 13 18 28 30 24 16 8
30 31 31 32 33 33 31 32 33 32 30 29 27 28 28 29 28 30 30 29 28 26 26 26 28 29 29 32 32 32 33 33 31 22 17 18 16 19 21 28 23 18 9
31 31 30 32 33 32 32 30 33 31 31 29 29 26 27 28 29 28 28 29 29 26 27 31 32 32 35 35 34 34 35 33 33 27 22 22 19 17 17 23 23 16 9
27 29 31 30 32 33 31 30 31 31 31 32 30 30 26 28 28 27 28 28 30 31 35 37 37 36 35 36 36 33 33 36 34 31 23 21 22 18 20 22 24 15 10
Wind_Direction
98 91 86 65 59 64 149 186 200 223 253 263 260 337 347 3 7 5 355 342 353 354 340 326 325 325 321 319 318 318 309 275 35 15 21 23 19 19 21 17 13 7 1
102 78 74 79 73 33 42 3 339 331 292 356 344 359 1 357 355 353 354 351 350 348 347 317 322 319 314 311 307 305 300 257 242 312 330 352 8 11 16 8 12 7 -0
135 81 41 17 13 5 356 350 340 341 345 344 346 350 353 353 355 356 356 350 348 349 347 340 330 324 314 310 303 284 285 235 218 251 295 313 344 3 357 355 356 357 349
202 166 351 337 344 354 350 347 339 341 343 341 343 346 348 350 349 348 346 344 345 344 341 340 333 322 318 314 301 270 217 212 213 218 252 294 315 332 339 341 345 347 344
342 349 336 336 332 338 338 340 333 337 338 339 340 341 341 341 341 341 339 342 343 341 341 336 330 323 311 309 298 286 250 210 205 209 201 209 304 318 333 337 341 358 349
344 336 337 338 336 335 336 338 334 336 338 335 335 335 336 337 338 339 337 339 340 339 334 332 332 329 312 309 274 263 280 205 201 203 218 192 197 309 329 339 7 358 347
345 342 341 341 340 339 338 339 343 339 338 337 336 334 336 337 337 339 341 338 336 338 338 337 336 344 344 339 321 181 202 203 206 194 191 199 179 228 323 341 337 342 346
353 350 347 344 340 337 336 340 340 337 337 339 334 333 327 330 337 330 335 333 336 340 340 342 346 349 347 354 355 216 204 197 192 187 186 186 186 175 175 343 342 340 336
355 353 352 347 347 343 339 339 340 338 333 339 342 337 331 329 328 335 330 334 333 336 341 349 357 352 346 347 326 333 268 207 187 182 176 170 169 169 161 162 356 351 350
356 356 356 353 351 350 346 344 344 343 342 338 344 345 343 338 335 332 333 331 333 332 338 342 350 349 351 322 324 329 304 280 181 178 173 167 159 157 147 57 17 7 351
6 5 3 3 359 356 353 351 348 348 348 346 345 344 344 344 345 338 333 326 326 331 336 334 340 335 320 308 320 311 309 303 279 178 173 164 142 88 62 45 28 10 359
7 7 7 4 1 357 355 354 351 349 346 345 346 348 348 347 342 343 339 335 329 329 323 333 327 321 326 326 312 291 304 297 280 270 185 166 132 74 51 56 25 24 358
4 3 4 2 1 360 359 356 353 351 349 348 349 348 349 348 346 343 341 338 338 335 335 328 327 329 320 315 312 309 300 297 286 280 246 215 136 94 75 42 43 16 1
9 9 7 4 1 358 357 354 352 350 349 350 348 347 347 345 345 345 343 339 337 339 336 335 332 331 326 319 323 304 296 293 289 276 269 259 311 62 30 50 36 15 7
11 6 2 359 358 357 355 353 350 350 350 350 348 346 345 343 342 342 341 342 340 335 333 333 328 328 324 317 321 313 298 297 284 271 262 261 290 2 26 43 27 11 10
5 1 359 358 357 356 353 351 349 351 351 351 349 344 342 341 339 338 336 335 336 334 329 328 319 320 319 305 308 331 309 289 276 261 260 242 270 334 50 44 12 9 22
359 355 354 353 350 348 348 346 344 348 347 346 344 341 339 338 335 333 331 329 328 329 324 319 316 316 322 310 306 316 319 288 283 279 270 263 268 304 341 350 357 21 25
354 350 350 348 344 343 343 341 344 345 343 340 340 337 335 333 330 330 329 325 323 323 321 312 311 310 310 315 308 304 313 300 289 292 277 276 274 287 301 315 347 16 18
346 345 345 344 343 341 343 344 343 341 338 337 337 335 333 332 330 329 327 323 319 317 315 312 306 307 307 318 312 307 301 296 295 294 285 274 269 278 290 310 317 340 357
343 341 340 339 339 340 340 340 339 337 335 334 333 333 334 333 330 328 324 321 319 315 313 310 305 302 303 307 313 306 299 303 296 288 286 276 276 269 279 291 307 322 353
341 339 336 336 336 334 332 336 338 337 334 333 334 333 333 332 328 326 323 318 316 315 313 311 306 300 298 298 304 305 302 295 294 283 285 288 271 268 259 270 280 309 343
336 334 332 332 330 328 331 335 336 334 331 331 331 332 332 331 328 325 323 323 317 310 306 309 306 299 294 295 299 300 293 291 301 281 279 278 275 277 253 257 272 293 328
331 330 332 329 330 329 329 330 331 330 328 327 327 329 329 329 327 324 322 321 320 315 311 306 304 305 296 293 293 291 285 270 272 281 289 300 286 282 255 249 266 282 310
320 324 330 331 328 328 329 329 329 328 328 327 327 326 325 324 326 323 324 321 318 315 313 309 302 300 300 292 288 284 278 272 271 291 313 295 287 281 270 249 267 272 293
323 326 331 332 329 328 327 327 327 326 324 325 324 323 321 321 322 325 324 318 313 313 311 303 297 295 290 288 286 284 273 274 270 273 286 290 286 282 281 258 260 271 281
331 329 330 332 331 329 328 328 327 326 323 321 320 318 317 319 320 321 317 315 310 307 303 297 291 290 288 284 279 279 276 268 269 266 272 286 275 272 273 264 254 271 281